1585004455,2020-03-24 00:00,56.98,961.52,1033.33,596,-4.66,-11.89,-81,1
1585004515,2020-03-24 00:01,56.95,961.51,1033.32,596,-4.72,-11.96,-80,1
1585004576,2020-03-24 00:02,57.02,961.51,1033.31,596,-4.72,-11.94,-83,1
1585004636,2020-03-24 00:03,57.03,961.49,1033.29,596,-4.72,-11.94,-81,1
1585004696,2020-03-24 00:04,56.41,961.54,1033.34,596,-4.77,-12.12,-81,1
1585004756,2020-03-24 00:05,56.21,961.54,1033.35,596,-4.80,-12.19,-82,1
1585004816,2020-03-24 00:06,56.36,961.44,1033.25,596,-4.79,-12.15,-82,1
1585004876,2020-03-24 00:07,56.87,961.46,1033.27,596,-4.82,-12.07,-82,1
1585004936,2020-03-24 00:08,56.84,961.45,1033.26,596,-4.80,-12.06,-81,1
1585004996,2020-03-24 00:09,57.50,961.48,1033.29,596,-4.88,-11.99,-82,1
1585005056,2020-03-24 00:10,57.11,961.47,1033.28,596,-4.81,-12.00,-81,1
1585005116,2020-03-24 00:11,56.66,961.44,1033.25,596,-4.82,-12.11,-83,1
1585005176,2020-03-24 00:12,56.71,961.43,1033.23,596,-4.89,-12.17,-81,1
1585005236,2020-03-24 00:13,57.36,961.39,1033.20,596,-4.95,-12.08,-82,1
1585005296,2020-03-24 00:14,56.93,961.42,1033.23,596,-4.91,-12.14,-82,1
1585005356,2020-03-24 00:15,56.46,961.41,1033.22,596,-4.87,-12.20,-82,1
1585005417,2020-03-24 00:16,56.58,961.47,1033.28,596,-4.90,-12.21,-82,1
1585005477,2020-03-24 00:17,56.35,961.41,1033.21,596,-4.95,-12.30,-82,1
1585005537,2020-03-24 00:18,56.65,961.44,1033.25,596,-4.98,-12.27,-81,1
1585005597,2020-03-24 00:19,56.79,961.40,1033.21,596,-4.97,-12.23,-82,1
1585005657,2020-03-24 00:20,56.88,961.43,1033.24,596,-4.96,-12.20,-82,1
1585005717,2020-03-24 00:21,55.67,961.41,1033.22,596,-4.91,-12.42,-81,1
1585005777,2020-03-24 00:22,55.94,961.43,1033.23,596,-4.84,-12.29,-82,1
1585005837,2020-03-24 00:23,56.87,961.45,1033.25,596,-4.87,-12.11,-81,1
1585005897,2020-03-24 00:24,56.86,961.44,1033.24,596,-4.88,-12.13,-80,1
1585005957,2020-03-24 00:25,57.27,961.45,1033.26,596,-4.94,-12.09,-81,1
1585006017,2020-03-24 00:26,57.47,961.42,1033.23,596,-4.98,-12.09,-82,1
1585006077,2020-03-24 00:27,58.00,961.44,1033.25,596,-4.99,-11.98,-83,1
1585006138,2020-03-24 00:28,57.72,961.44,1033.24,596,-5.06,-12.11,-82,1
1585006198,2020-03-24 00:29,58.20,961.44,1033.25,596,-5.11,-12.05,-83,1
1585006258,2020-03-24 00:30,58.11,961.44,1033.24,596,-5.05,-12.01,-82,1
1585006318,2020-03-24 00:31,58.22,961.47,1033.28,596,-5.13,-12.07,-82,1
1585006378,2020-03-24 00:32,58.14,961.40,1033.21,596,-5.11,-12.07,-81,1
1585006438,2020-03-24 00:33,58.34,961.41,1033.22,596,-5.09,-12.00,-82,1
1585006498,2020-03-24 00:34,58.12,961.49,1033.30,596,-5.13,-12.09,-81,1
1585006558,2020-03-24 00:35,57.98,961.38,1033.19,596,-5.14,-12.13,-81,1
1585006618,2020-03-24 00:36,58.16,961.45,1033.25,596,-5.13,-12.08,-82,1
1585006678,2020-03-24 00:37,58.43,961.43,1033.23,596,-5.20,-12.09,-81,1
1585006738,2020-03-24 00:38,58.37,961.43,1033.23,596,-5.18,-12.08,-80,1
1585006798,2020-03-24 00:39,58.24,961.46,1033.26,596,-5.12,-12.05,-82,1
1585006858,2020-03-24 00:40,57.76,961.44,1033.25,596,-5.18,-12.21,-80,1
1585006918,2020-03-24 00:41,57.50,961.45,1033.26,596,-5.19,-12.28,-80,1
1585006978,2020-03-24 00:42,57.72,961.44,1033.25,596,-5.30,-12.33,-80,1
1585007038,2020-03-24 00:43,58.27,961.45,1033.25,596,-5.36,-12.27,-81,1
1585007098,2020-03-24 00:44,58.61,961.48,1033.29,596,-5.30,-12.14,-78,1
1585007158,2020-03-24 00:45,58.71,961.46,1033.27,596,-5.29,-12.11,-81,1
1585007218,2020-03-24 00:46,58.70,961.43,1033.24,596,-5.26,-12.09,-81,1
1585007278,2020-03-24 00:47,58.93,961.46,1033.27,596,-5.39,-12.16,-80,1
1585007338,2020-03-24 00:48,58.97,961.42,1033.22,596,-5.46,-12.22,-81,1
1585007398,2020-03-24 00:49,59.25,961.41,1033.21,596,-5.53,-12.23,-82,1
1585007458,2020-03-24 00:50,59.08,961.43,1033.24,596,-5.59,-12.32,-83,1
1585007518,2020-03-24 00:51,59.71,961.40,1033.21,596,-5.58,-12.18,-81,1
1585007578,2020-03-24 00:52,59.62,961.46,1033.27,596,-5.64,-12.25,-81,1
1585007638,2020-03-24 00:53,59.60,961.41,1033.22,596,-5.63,-12.25,-82,1
1585007699,2020-03-24 00:54,58.94,961.42,1033.23,596,-5.64,-12.40,-81,1
1585007759,2020-03-24 00:55,59.07,961.42,1033.22,596,-5.63,-12.36,-82,1
1585007819,2020-03-24 00:56,59.21,961.34,1033.15,596,-5.63,-12.33,-82,1
1585007879,2020-03-24 00:57,59.34,961.44,1033.24,596,-5.67,-12.34,-81,1
1585007939,2020-03-24 00:58,59.78,961.39,1033.19,596,-5.63,-12.21,-82,1
1585007999,2020-03-24 00:59,59.32,961.37,1033.18,596,-5.61,-12.29,-81,1
1585008059,2020-03-24 01:00,58.92,961.36,1033.17,596,-5.59,-12.35,-82,1
1585008119,2020-03-24 01:01,59.38,961.35,1033.16,596,-5.63,-12.29,-82,1
1585008179,2020-03-24 01:02,59.35,961.33,1033.14,596,-5.62,-12.29,-83,1
1585008239,2020-03-24 01:03,59.10,961.33,1033.14,596,-5.67,-12.39,-80,1
1585008299,2020-03-24 01:04,59.64,961.30,1033.11,596,-5.70,-12.31,-81,1
1585008359,2020-03-24 01:05,59.57,961.28,1033.09,596,-5.66,-12.28,-81,1
1585008419,2020-03-24 01:06,59.84,961.27,1033.07,596,-5.69,-12.26,-82,1
1585008479,2020-03-24 01:07,59.55,961.27,1033.08,596,-5.69,-12.32,-81,1
1585008539,2020-03-24 01:08,59.99,961.28,1033.09,596,-5.74,-12.27,-81,1
1585008599,2020-03-24 01:09,59.85,961.27,1033.07,596,-5.70,-12.26,-80,1
1585008659,2020-03-24 01:10,59.81,961.22,1033.03,596,-5.68,-12.25,-80,1
1585008719,2020-03-24 01:11,59.99,961.23,1033.04,596,-5.69,-12.22,-82,1
1585008779,2020-03-24 01:12,60.09,961.29,1033.09,596,-5.66,-12.17,-81,1
1585008839,2020-03-24 01:13,60.18,961.30,1033.11,596,-5.66,-12.16,-81,1
1585008899,2020-03-24 01:14,60.27,961.28,1033.09,596,-5.65,-12.13,-80,1
1585008959,2020-03-24 01:15,60.10,961.27,1033.08,596,-5.60,-12.12,-80,1
1585009019,2020-03-24 01:16,60.26,961.27,1033.07,596,-5.68,-12.16,-82,1
1585009079,2020-03-24 01:17,60.22,961.25,1033.05,596,-5.69,-12.18,-81,1
1585009139,2020-03-24 01:18,59.95,961.26,1033.06,596,-5.67,-12.21,-81,1
1585009200,2020-03-24 01:20,59.90,961.26,1033.07,596,-5.69,-12.24,-81,1
1585009260,2020-03-24 01:21,60.00,961.21,1033.02,596,-5.75,-12.28,-81,1
1585009320,2020-03-24 01:22,60.01,961.27,1033.07,596,-5.71,-12.24,-82,1
1585009380,2020-03-24 01:23,60.19,961.27,1033.08,596,-5.69,-12.18,-82,1
1585009440,2020-03-24 01:24,60.58,961.29,1033.09,596,-5.69,-12.10,-83,1
1585009500,2020-03-24 01:25,60.30,961.26,1033.07,596,-5.67,-12.14,-82,1
1585009560,2020-03-24 01:26,60.47,961.28,1033.09,596,-5.76,-12.19,-81,1
1585009620,2020-03-24 01:27,60.27,961.35,1033.16,596,-5.81,-12.28,-80,1
1585009680,2020-03-24 01:28,60.63,961.29,1033.09,596,-5.82,-12.22,-80,1
1585009740,2020-03-24 01:29,60.36,961.31,1033.12,596,-5.80,-12.25,-81,1
1585009800,2020-03-24 01:30,60.67,961.32,1033.13,596,-5.80,-12.19,-81,1
1585009860,2020-03-24 01:31,60.41,961.34,1033.15,596,-5.79,-12.23,-82,1
1585009920,2020-03-24 01:32,60.43,961.33,1033.13,596,-5.80,-12.24,-83,1
1585009980,2020-03-24 01:33,60.48,961.33,1033.14,596,-5.85,-12.27,-81,1
1585010040,2020-03-24 01:34,60.59,961.27,1033.08,596,-5.85,-12.25,-82,1
1585010100,2020-03-24 01:35,60.95,961.27,1033.08,596,-5.88,-12.21,-81,1
1585010160,2020-03-24 01:36,60.75,961.29,1033.10,596,-5.91,-12.28,-80,1
1585010220,2020-03-24 01:37,60.61,961.32,1033.13,596,-5.95,-12.34,-81,1
1585010280,2020-03-24 01:38,61.02,961.30,1033.11,596,-5.92,-12.23,-81,1
1585010340,2020-03-24 01:39,60.89,961.29,1033.10,596,-5.93,-12.27,-81,1
1585010400,2020-03-24 01:40,60.21,961.31,1033.11,596,-5.94,-12.41,-82,1
1585010460,2020-03-24 01:41,60.75,961.31,1033.11,596,-5.93,-12.29,-80,1
1585010520,2020-03-24 01:42,60.58,961.27,1033.08,596,-5.91,-12.31,-82,1
1585010580,2020-03-24 01:43,61.30,961.27,1033.08,596,-5.96,-12.21,-81,1
1585010640,2020-03-24 01:44,61.10,961.25,1033.06,596,-5.93,-12.22,-82,1
1585010700,2020-03-24 01:45,60.95,961.29,1033.10,596,-5.92,-12.24,-81,1
1585010760,2020-03-24 01:46,60.72,961.32,1033.12,596,-5.95,-12.32,-82,1
1585010821,2020-03-24 01:47,60.89,961.24,1033.05,596,-5.96,-12.29,-80,1
1585010881,2020-03-24 01:48,60.60,961.25,1033.06,596,-5.94,-12.34,-81,1
1585010941,2020-03-24 01:49,60.79,961.28,1033.09,596,-5.92,-12.28,-84,1
1585011001,2020-03-24 01:50,61.24,961.29,1033.10,596,-5.90,-12.17,-81,1
1585011061,2020-03-24 01:51,60.89,961.27,1033.07,596,-5.91,-12.25,-80,1
1585011121,2020-03-24 01:52,60.87,961.28,1033.09,596,-5.93,-12.27,-81,1
1585011181,2020-03-24 01:53,60.66,961.27,1033.07,596,-5.91,-12.30,-80,1
1585011241,2020-03-24 01:54,60.66,961.24,1033.04,596,-5.89,-12.28,-81,1
1585011301,2020-03-24 01:55,60.57,961.24,1033.05,596,-5.87,-12.28,-82,1
1585011361,2020-03-24 01:56,60.50,961.24,1033.05,596,-5.86,-12.28,-81,1
1585011421,2020-03-24 01:57,60.57,961.24,1033.05,596,-5.92,-12.32,-82,1
1585011481,2020-03-24 01:58,60.78,961.24,1033.05,596,-5.97,-12.33,-81,1
1585011541,2020-03-24 01:59,60.15,961.26,1033.07,596,-5.89,-12.38,-81,1
1585011601,2020-03-24 02:00,60.64,961.27,1033.08,596,-5.95,-12.34,-81,1
1585011661,2020-03-24 02:01,60.59,961.22,1033.03,596,-5.89,-12.29,-82,1
1585011721,2020-03-24 02:02,60.74,961.23,1033.04,596,-5.87,-12.24,-81,1
1585011781,2020-03-24 02:03,60.61,961.25,1033.05,596,-5.86,-12.26,-81,1
1585011841,2020-03-24 02:04,60.35,961.22,1033.03,596,-5.92,-12.37,-82,1
1585011901,2020-03-24 02:05,60.63,961.20,1033.01,596,-5.89,-12.28,-82,1
1585011961,2020-03-24 02:06,60.83,961.16,1032.97,596,-5.91,-12.26,-80,1
1585012021,2020-03-24 02:07,60.54,961.20,1033.00,596,-5.91,-12.32,-82,1
1585012081,2020-03-24 02:08,60.27,961.22,1033.03,596,-5.96,-12.42,-78,1
1585012141,2020-03-24 02:09,60.43,961.22,1033.03,596,-5.99,-12.42,-81,1
1585012201,2020-03-24 02:10,60.41,961.18,1032.99,596,-5.95,-12.38,-83,1
1585012261,2020-03-24 02:11,60.20,961.19,1033.00,596,-6.00,-12.48,-81,1
1585012321,2020-03-24 02:12,60.10,961.24,1033.05,596,-6.12,-12.61,-80,1
1585012382,2020-03-24 02:13,60.95,961.18,1032.99,596,-6.12,-12.43,-80,1
1585012442,2020-03-24 02:14,61.40,961.18,1032.98,596,-6.12,-12.34,-81,1
1585012502,2020-03-24 02:15,60.79,961.22,1033.03,596,-6.10,-12.45,-80,1
1585012562,2020-03-24 02:16,61.03,961.17,1032.98,596,-6.15,-12.45,-81,1
1585012622,2020-03-24 02:17,61.11,961.22,1033.02,596,-6.09,-12.37,-79,1
1585012682,2020-03-24 02:18,61.05,961.21,1033.02,596,-6.08,-12.38,-81,1
1585012742,2020-03-24 02:19,60.92,961.18,1032.99,596,-6.18,-12.50,-80,1
1585012802,2020-03-24 02:20,61.36,961.22,1033.02,596,-6.24,-12.46,-81,1
1585012862,2020-03-24 02:21,61.19,961.20,1033.01,596,-6.22,-12.48,-81,1
1585012922,2020-03-24 02:22,61.57,961.20,1033.01,596,-6.20,-12.38,-83,1
1585012982,2020-03-24 02:23,61.68,961.19,1033.00,596,-6.23,-12.39,-81,1
1585013042,2020-03-24 02:24,61.54,961.20,1033.01,596,-6.18,-12.37,-81,1
1585013102,2020-03-24 02:25,61.68,961.19,1033.00,596,-6.21,-12.37,-80,1
1585013162,2020-03-24 02:26,61.79,961.18,1032.99,596,-6.26,-12.40,-82,1
1585013222,2020-03-24 02:27,61.71,961.18,1032.99,596,-6.36,-12.51,-80,1
1585013282,2020-03-24 02:28,61.27,961.16,1032.97,596,-6.22,-12.46,-82,1
1585013342,2020-03-24 02:29,61.43,961.20,1033.00,596,-6.29,-12.50,-81,1
1585013402,2020-03-24 02:30,61.71,961.24,1033.05,596,-6.36,-12.51,-81,1
1585013462,2020-03-24 02:31,61.69,961.19,1032.99,596,-6.33,-12.48,-79,1
1585013522,2020-03-24 02:32,61.72,961.23,1033.04,596,-6.27,-12.42,-81,1
1585013582,2020-03-24 02:33,61.83,961.21,1033.01,596,-6.32,-12.45,-83,1
1585013642,2020-03-24 02:34,61.54,961.17,1032.98,596,-6.37,-12.55,-81,1
1585013702,2020-03-24 02:35,61.93,961.20,1033.01,596,-6.38,-12.48,-81,1
1585013762,2020-03-24 02:36,61.92,961.19,1033.00,596,-6.36,-12.47,-81,1
1585013822,2020-03-24 02:37,61.82,961.17,1032.97,596,-6.45,-12.57,-82,1
1585013882,2020-03-24 02:38,61.27,961.19,1033.00,596,-6.37,-12.61,-81,1
1585013942,2020-03-24 02:39,61.36,961.15,1032.96,596,-6.35,-12.57,-81,1
1585014003,2020-03-24 02:40,61.63,961.12,1032.93,596,-6.35,-12.52,-80,1
1585014063,2020-03-24 02:41,61.41,961.18,1032.99,596,-6.35,-12.56,-82,1
1585014123,2020-03-24 02:42,60.98,961.14,1032.95,596,-6.42,-12.71,-80,1
1585014183,2020-03-24 02:43,61.51,961.17,1032.97,596,-6.43,-12.62,-81,1
1585014243,2020-03-24 02:44,61.63,961.12,1032.93,596,-6.46,-12.62,-79,1
1585014303,2020-03-24 02:45,61.71,961.08,1032.89,596,-6.48,-12.62,-80,1
1585014363,2020-03-24 02:46,61.41,961.10,1032.91,596,-6.64,-12.84,-81,1
1585014423,2020-03-24 02:47,61.50,961.07,1032.87,596,-6.52,-12.70,-81,1
1585014483,2020-03-24 02:48,61.52,961.10,1032.91,596,-6.56,-12.74,-80,1
1585014543,2020-03-24 02:49,61.58,961.09,1032.89,596,-6.55,-12.71,-82,1
1585014603,2020-03-24 02:50,61.44,961.06,1032.86,596,-6.57,-12.76,-82,1
1585014663,2020-03-24 02:51,61.34,961.01,1032.82,596,-6.54,-12.75,-82,1
1585014723,2020-03-24 02:52,60.96,961.09,1032.89,596,-6.64,-12.93,-81,1
1585014783,2020-03-24 02:53,61.28,961.06,1032.87,596,-6.66,-12.88,-83,1
1585014843,2020-03-24 02:54,61.99,961.06,1032.87,596,-6.66,-12.74,-81,1
1585014903,2020-03-24 02:55,61.85,961.05,1032.86,596,-6.61,-12.72,-81,1
1585014963,2020-03-24 02:56,61.88,961.07,1032.88,596,-6.62,-12.72,-81,1
1585015023,2020-03-24 02:57,61.75,961.04,1032.85,596,-6.60,-12.73,-81,1
1585015083,2020-03-24 02:58,61.75,961.02,1032.83,596,-6.58,-12.71,-81,1
1585015143,2020-03-24 02:59,61.31,961.03,1032.84,596,-6.53,-12.75,-82,1
1585015203,2020-03-24 03:00,61.35,961.09,1032.90,596,-6.67,-12.88,-82,1
1585015263,2020-03-24 03:01,61.11,961.04,1032.85,596,-6.75,-13.00,-81,1
1585015323,2020-03-24 03:02,61.55,961.05,1032.86,596,-6.65,-12.82,-80,1
1585015383,2020-03-24 03:03,61.89,961.04,1032.85,596,-6.68,-12.78,-81,1
1585015443,2020-03-24 03:04,61.21,961.02,1032.83,596,-6.69,-12.92,-79,1
1585015503,2020-03-24 03:05,61.13,961.04,1032.85,596,-6.76,-13.00,-81,1
1585015564,2020-03-24 03:06,60.98,960.99,1032.79,596,-6.82,-13.09,-82,1
1585015624,2020-03-24 03:07,61.55,960.99,1032.79,596,-6.79,-12.95,-81,1
1585015685,2020-03-24 03:08,61.87,961.03,1032.84,596,-6.87,-12.96,-82,1
1585015745,2020-03-24 03:09,62.05,961.06,1032.86,596,-6.79,-12.85,-81,1
1585015805,2020-03-24 03:10,62.26,961.05,1032.86,596,-6.78,-12.80,-82,1
1585015865,2020-03-24 03:11,62.40,961.07,1032.88,596,-6.79,-12.78,-82,1
1585015925,2020-03-24 03:12,62.28,961.06,1032.87,596,-6.75,-12.76,-81,1
1585015985,2020-03-24 03:13,62.45,961.02,1032.83,596,-6.76,-12.74,-82,1
1585016045,2020-03-24 03:14,62.41,961.01,1032.82,596,-6.76,-12.75,-80,1
1585016105,2020-03-24 03:15,62.46,961.04,1032.85,596,-6.82,-12.80,-80,1
1585016165,2020-03-24 03:16,61.94,961.06,1032.87,596,-6.78,-12.86,-80,1
1585016225,2020-03-24 03:17,62.21,960.99,1032.80,596,-6.85,-12.87,-81,1
1585016285,2020-03-24 03:18,61.67,960.99,1032.80,596,-6.91,-13.04,-81,1
1585016345,2020-03-24 03:19,61.53,961.01,1032.82,596,-6.93,-13.08,-80,1
1585016405,2020-03-24 03:20,61.74,961.00,1032.81,596,-6.92,-13.03,-81,1
1585016465,2020-03-24 03:21,61.94,961.04,1032.85,596,-6.90,-12.98,-80,1
1585016525,2020-03-24 03:22,62.28,961.07,1032.88,596,-6.90,-12.91,-83,1
1585016585,2020-03-24 03:23,62.37,961.05,1032.86,596,-6.94,-12.93,-79,1
1585016645,2020-03-24 03:24,61.97,961.05,1032.86,596,-6.88,-12.95,-81,1
1585016705,2020-03-24 03:25,61.73,961.02,1032.83,596,-6.82,-12.94,-81,1
1585016765,2020-03-24 03:26,61.67,960.98,1032.79,596,-6.82,-12.95,-81,1
1585016825,2020-03-24 03:27,61.52,961.05,1032.85,596,-6.77,-12.94,-82,1
1585016885,2020-03-24 03:28,61.45,961.06,1032.87,596,-6.71,-12.89,-80,1
1585016945,2020-03-24 03:29,60.79,961.04,1032.84,596,-6.67,-12.99,-81,1
1585017005,2020-03-24 03:30,60.85,961.00,1032.81,596,-6.63,-12.94,-81,1
1585017065,2020-03-24 03:31,60.91,961.01,1032.82,596,-6.62,-12.92,-81,1
1585017126,2020-03-24 03:32,60.79,961.01,1032.81,596,-6.65,-12.97,-82,1
1585017186,2020-03-24 03:33,61.21,961.04,1032.84,596,-6.66,-12.89,-82,1
1585017246,2020-03-24 03:34,60.84,961.04,1032.85,596,-6.64,-12.95,-82,1
1585017306,2020-03-24 03:35,60.58,961.00,1032.81,596,-6.64,-13.00,-81,1
1585017366,2020-03-24 03:36,60.60,961.11,1032.91,596,-6.59,-12.95,-80,1
1585017426,2020-03-24 03:37,60.71,961.08,1032.89,596,-6.61,-12.95,-81,1
1585017486,2020-03-24 03:38,60.33,961.08,1032.89,596,-6.57,-12.99,-82,1
1585017546,2020-03-24 03:39,60.52,961.09,1032.90,596,-6.51,-12.89,-81,1
1585017606,2020-03-24 03:40,60.74,961.09,1032.90,596,-6.51,-12.85,-80,1
1585017666,2020-03-24 03:41,60.81,961.08,1032.89,596,-6.59,-12.91,-81,1
1585017726,2020-03-24 03:42,60.54,961.05,1032.86,596,-6.60,-12.97,-81,1
1585017786,2020-03-24 03:43,60.16,961.04,1032.85,596,-6.56,-13.01,-82,1
1585017846,2020-03-24 03:44,60.36,961.12,1032.93,596,-6.59,-13.00,-80,1
1585017906,2020-03-24 03:45,60.52,961.12,1032.92,596,-6.57,-12.95,-82,1
1585017966,2020-03-24 03:46,60.40,961.07,1032.88,596,-6.73,-13.13,-82,1
1585018026,2020-03-24 03:47,60.70,961.05,1032.86,596,-6.63,-12.97,-82,1
1585018086,2020-03-24 03:48,61.21,960.99,1032.80,596,-6.61,-12.85,-81,1
1585018146,2020-03-24 03:49,61.00,961.09,1032.90,596,-6.69,-12.96,-83,1
1585018206,2020-03-24 03:50,61.10,961.06,1032.86,596,-6.65,-12.91,-81,1
1585018266,2020-03-24 03:51,61.05,961.03,1032.84,596,-6.67,-12.94,-80,1
1585018326,2020-03-24 03:52,60.13,960.99,1032.80,596,-6.63,-13.08,-81,1
1585018386,2020-03-24 03:53,60.12,960.99,1032.79,596,-6.59,-13.05,-81,1
1585018446,2020-03-24 03:54,60.42,961.06,1032.87,596,-6.62,-13.02,-81,1
1585018506,2020-03-24 03:55,60.21,960.99,1032.79,596,-6.60,-13.04,-82,1
1585018566,2020-03-24 03:56,60.34,960.93,1032.74,596,-6.57,-12.99,-82,1
1585018626,2020-03-24 03:57,60.15,960.97,1032.77,596,-6.60,-13.05,-81,1
1585018686,2020-03-24 03:58,60.12,960.94,1032.75,596,-6.54,-13.00,-83,1
1585018747,2020-03-24 03:59,59.77,960.94,1032.75,596,-6.55,-13.08,-81,1
1585018807,2020-03-24 04:00,59.56,960.94,1032.74,596,-6.56,-13.14,-82,1
1585018867,2020-03-24 04:01,59.40,960.96,1032.77,596,-6.58,-13.19,-80,1
1585018927,2020-03-24 04:02,59.16,960.94,1032.75,596,-6.56,-13.22,-82,1
1585018987,2020-03-24 04:03,59.23,961.00,1032.81,596,-6.56,-13.20,-81,1
1585019047,2020-03-24 04:04,59.53,960.97,1032.78,596,-6.53,-13.11,-82,1
1585019107,2020-03-24 04:05,60.34,960.96,1032.76,596,-6.53,-12.95,-81,1
1585019167,2020-03-24 04:06,61.36,961.00,1032.81,596,-6.58,-12.79,-81,1
1585019227,2020-03-24 04:07,60.46,960.94,1032.74,596,-6.57,-12.96,-81,1
1585019287,2020-03-24 04:08,60.21,960.98,1032.79,596,-6.72,-13.15,-83,1
1585019347,2020-03-24 04:09,60.45,961.07,1032.88,596,-6.67,-13.06,-82,1
1585019407,2020-03-24 04:10,59.79,960.96,1032.77,596,-6.63,-13.16,-82,1
1585019467,2020-03-24 04:11,60.64,961.06,1032.86,596,-6.66,-13.01,-81,1
1585019527,2020-03-24 04:12,61.11,960.99,1032.79,596,-6.64,-12.89,-82,1
1585019587,2020-03-24 04:13,60.88,961.00,1032.81,596,-6.71,-13.01,-81,1
1585019647,2020-03-24 04:14,61.33,961.00,1032.81,596,-6.74,-12.95,-82,1
1585019707,2020-03-24 04:15,60.97,961.03,1032.83,596,-6.68,-12.96,-82,1
1585019767,2020-03-24 04:16,61.43,961.00,1032.80,596,-6.67,-12.86,-81,1
1585019827,2020-03-24 04:17,61.24,960.97,1032.78,596,-6.66,-12.89,-82,1
1585019887,2020-03-24 04:18,60.63,960.94,1032.75,596,-6.63,-12.98,-80,1
1585019947,2020-03-24 04:19,59.51,960.95,1032.76,596,-6.61,-13.19,-83,1
1585020007,2020-03-24 04:20,59.99,960.93,1032.74,596,-6.61,-13.09,-81,1
1585020067,2020-03-24 04:21,59.34,960.98,1032.78,596,-6.58,-13.20,-81,1
1585020127,2020-03-24 04:22,60.28,960.98,1032.79,596,-6.62,-13.04,-81,1
1585020187,2020-03-24 04:23,60.33,961.01,1032.82,596,-6.60,-13.01,-81,1
1585020247,2020-03-24 04:24,60.61,961.01,1032.82,596,-6.63,-12.99,-83,1
1585020308,2020-03-24 04:25,60.88,960.99,1032.80,596,-6.66,-12.96,-83,1
1585020368,2020-03-24 04:26,61.78,961.08,1032.88,596,-6.67,-12.79,-80,1
1585020428,2020-03-24 04:27,61.58,961.02,1032.83,596,-6.67,-12.83,-80,1
1585020488,2020-03-24 04:28,61.72,961.06,1032.87,596,-6.76,-12.89,-79,1
1585020548,2020-03-24 04:29,61.68,961.08,1032.89,596,-6.77,-12.90,-83,1
1585020608,2020-03-24 04:30,61.71,961.08,1032.88,596,-6.81,-12.94,-81,1
1585020668,2020-03-24 04:31,62.00,961.04,1032.84,596,-6.80,-12.87,-81,1
1585020728,2020-03-24 04:32,61.64,961.09,1032.90,596,-6.85,-12.99,-81,1
1585020788,2020-03-24 04:33,61.92,961.07,1032.88,596,-6.81,-12.89,-81,1
1585020848,2020-03-24 04:34,61.39,961.08,1032.89,596,-6.81,-13.00,-82,1
1585020908,2020-03-24 04:35,61.55,961.09,1032.90,596,-6.80,-12.96,-81,1
1585020968,2020-03-24 04:36,61.55,961.10,1032.90,596,-6.78,-12.94,-80,1
1585021028,2020-03-24 04:37,61.59,961.13,1032.94,596,-6.78,-12.93,-81,1
1585021088,2020-03-24 04:38,61.34,961.12,1032.92,596,-6.86,-13.06,-82,1
1585021148,2020-03-24 04:39,61.42,961.16,1032.96,596,-6.85,-13.03,-81,1
1585021208,2020-03-24 04:40,61.51,961.16,1032.96,596,-6.83,-12.99,-81,1
1585021268,2020-03-24 04:41,61.86,961.14,1032.95,596,-6.86,-12.95,-83,1
1585021328,2020-03-24 04:42,61.28,961.12,1032.93,596,-6.87,-13.08,-82,1
1585021388,2020-03-24 04:43,61.37,961.18,1032.98,596,-6.87,-13.06,-81,1
1585021448,2020-03-24 04:44,62.14,961.17,1032.98,596,-6.90,-12.94,-81,1
1585021508,2020-03-24 04:45,61.80,961.18,1032.99,596,-6.93,-13.03,-79,1
1585021568,2020-03-24 04:46,61.36,961.17,1032.98,596,-6.94,-13.13,-83,1
1585021628,2020-03-24 04:47,62.40,961.19,1033.00,596,-6.93,-12.91,-82,1
1585021688,2020-03-24 04:48,62.08,961.25,1033.06,596,-7.05,-13.09,-81,1
1585021748,2020-03-24 04:49,62.35,961.18,1032.99,596,-7.11,-13.09,-80,1
1585021808,2020-03-24 04:50,62.56,961.20,1033.00,596,-7.14,-13.08,-80,1
1585021868,2020-03-24 04:51,62.09,961.20,1033.01,596,-7.11,-13.15,-82,1
1585021929,2020-03-24 04:52,62.56,961.18,1032.99,596,-7.11,-13.05,-80,1
1585021989,2020-03-24 04:53,62.52,961.21,1033.02,596,-7.08,-13.03,-81,1
1585022049,2020-03-24 04:54,63.07,961.20,1033.00,596,-7.12,-12.96,-81,1
1585022109,2020-03-24 04:55,62.78,961.16,1032.97,596,-7.13,-13.03,-80,1
1585022169,2020-03-24 04:56,62.59,961.16,1032.97,596,-7.06,-13.00,-81,1
1585022229,2020-03-24 04:57,62.07,961.20,1033.01,596,-7.04,-13.08,-82,1
1585022289,2020-03-24 04:58,61.50,961.20,1033.01,596,-6.99,-13.15,-81,1
1585022349,2020-03-24 04:59,62.13,961.24,1033.05,596,-7.02,-13.05,-82,1
1585022409,2020-03-24 05:00,62.19,961.23,1033.04,596,-7.04,-13.06,-80,1
1585022469,2020-03-24 05:01,62.50,961.21,1033.02,596,-7.09,-13.05,-81,1
1585022529,2020-03-24 05:02,62.84,961.23,1033.03,596,-7.13,-13.02,-81,1
1585022589,2020-03-24 05:03,63.06,961.24,1033.05,596,-7.15,-12.99,-81,1
1585022649,2020-03-24 05:04,62.75,961.21,1033.01,596,-7.12,-13.02,-80,1
1585022709,2020-03-24 05:05,63.02,961.26,1033.07,596,-7.16,-13.01,-81,1
1585022769,2020-03-24 05:06,63.37,961.24,1033.05,596,-7.14,-12.92,-81,1
1585022829,2020-03-24 05:07,62.92,961.23,1033.04,596,-7.15,-13.02,-81,1
1585022889,2020-03-24 05:08,63.88,961.23,1033.04,596,-7.17,-12.85,-82,1
1585022949,2020-03-24 05:09,63.30,961.21,1033.02,596,-7.16,-12.95,-80,1
1585023009,2020-03-24 05:10,62.80,961.23,1033.04,596,-7.29,-13.18,-82,1
1585023069,2020-03-24 05:11,63.03,961.24,1033.04,596,-7.33,-13.17,-81,1
1585023129,2020-03-24 05:12,63.46,961.27,1033.08,596,-7.30,-13.06,-81,1
1585023189,2020-03-24 05:13,63.25,961.25,1033.05,596,-7.32,-13.12,-82,1
1585023249,2020-03-24 05:14,63.43,961.27,1033.07,596,-7.40,-13.16,-82,1
1585023309,2020-03-24 05:15,63.57,961.29,1033.10,596,-7.40,-13.13,-81,1
1585023369,2020-03-24 05:16,63.50,961.24,1033.04,596,-7.41,-13.15,-82,1
1585023430,2020-03-24 05:17,63.60,961.26,1033.06,596,-7.39,-13.12,-81,1
1585023490,2020-03-24 05:18,63.45,961.29,1033.09,596,-7.39,-13.15,-82,1
1585023550,2020-03-24 05:19,63.73,961.31,1033.12,596,-7.42,-13.12,-82,1
1585023610,2020-03-24 05:20,63.70,961.28,1033.08,596,-7.54,-13.24,-81,1
1585023670,2020-03-24 05:21,63.63,961.29,1033.10,596,-7.44,-13.16,-82,1
1585023730,2020-03-24 05:22,63.78,961.28,1033.09,596,-7.43,-13.12,-81,1
1585023790,2020-03-24 05:23,64.00,961.26,1033.06,596,-7.43,-13.08,-82,1
1585023850,2020-03-24 05:24,63.55,961.28,1033.09,596,-7.47,-13.20,-81,1
1585023910,2020-03-24 05:25,63.43,961.28,1033.09,596,-7.47,-13.22,-80,1
1585023970,2020-03-24 05:26,64.33,961.24,1033.05,596,-7.35,-12.94,-80,1
1585024030,2020-03-24 05:27,63.55,961.29,1033.10,596,-7.37,-13.11,-79,1
1585024090,2020-03-24 05:28,63.44,961.37,1033.18,596,-7.42,-13.17,-80,1
1585024150,2020-03-24 05:29,63.37,961.32,1033.12,596,-7.36,-13.13,-81,1
1585024210,2020-03-24 05:30,63.57,961.28,1033.09,596,-7.39,-13.12,-82,1
1585024270,2020-03-24 05:31,63.11,961.37,1033.17,596,-7.59,-13.40,-81,1
1585024330,2020-03-24 05:32,63.39,961.32,1033.12,596,-7.55,-13.31,-82,1
1585024390,2020-03-24 05:33,63.71,961.26,1033.07,596,-7.55,-13.25,-80,1